GFSSE_con_3kmhel_021.txt.gz
Helicity
47 12 53 72 79 64 62 53 59 62 64 60 49 42 45 55 62 69 73 76 77 80 84 87 84 88 84 75 74 63 47 47 52 58 72 56 44 52 62 41 38 37 31
78 45 75 84 68 60 66 68 75 64 52 50 49 51 62 74 79 77 73 68 67 70 75 74 71 69 62 59 62 68 61 54 57 58 74 87 39 39 50 68 49 37 28
73 80 81 78 75 73 81 80 69 50 48 50 64 70 79 86 86 84 82 78 79 81 81 74 74 75 71 66 56 48 45 49 51 43 63 66 51 66 125 45 35 27 36
73 80 73 76 59 68 89 75 66 64 68 77 82 89 87 83 79 69 61 54 53 56 64 61 51 52 55 57 54 50 49 48 53 65 74 111 58 133 95 36 15 39 44
71 66 63 71 89 90 77 74 73 73 76 77 81 84 69 54 46 38 38 40 45 49 42 35 33 36 34 32 35 29 23 28 43 71 96 72 78 79 17 -67 6 32 44
66 57 52 56 48 59 69 85 91 90 82 75 59 47 40 39 37 40 45 46 47 44 43 39 32 28 23 13 6 0 -2 2 25 48 86 62 31 21 -6 -32 39 42 49
49 33 26 34 48 65 79 81 68 60 48 34 30 29 39 43 45 49 45 45 46 40 37 32 26 21 17 11 7 1 -7 -7 4 61 55 61 59 52 82 89 36 56 50
25 1 9 34 54 60 51 47 54 45 28 27 28 32 33 33 35 45 45 41 39 35 30 22 15 11 10 8 3 5 10 22 36 91 68 71 75 52 47 30 54 71 64
12 8 -11 4 31 26 25 29 26 22 20 18 22 31 15 25 20 23 38 35 37 30 23 20 4 -2 9 11 1 -6 11 30 46 92 66 105 86 73 60 70 71 74 78
-2 -10 -12 17 5 -8 -29 10 12 14 12 0 14 22 7 27 7 1 27 16 9 10 12 0 -6 -1 15 25 24 17 31 58 56 53 76 70 76 76 65 60 65 66 73
-27 -23 -1 -3 -20 -13 -35 -14 -17 -8 0 -13 6 4 -12 10 19 20 27 27 9 24 11 -8 1 5 4 9 6 20 19 57 48 63 59 63 69 70 58 52 60 60 60
44 76 30 24 3 14 8 15 -5 -29 -33 -29 -31 -1 -12 0 13 27 34 32 14 18 9 -6 2 6 23 37 40 19 35 22 14 28 43 96 53 50 47 40 53 50 48
67 159 153 67 56 30 49 21 15 -16 -29 -1 4 45 49 53 58 65 49 30 39 15 30 19 32 51 48 70 72 76 53 22 2 13 36 65 43 33 29 34 48 51 46
144 218 188 122 85 42 43 55 38 63 77 87 75 75 75 67 73 79 54 30 12 25 31 40 49 49 47 39 56 78 81 76 62 61 51 36 47 30 24 20 30 40 46
181 249 259 194 87 51 67 50 69 121 100 110 123 109 91 83 59 47 35 26 24 34 47 55 57 51 47 40 54 60 57 90 96 95 99 73 73 54 26 24 24 25 32
127 284 255 280 101 78 73 94 67 114 97 137 117 104 99 88 57 66 56 52 46 53 54 63 58 49 49 68 83 97 101 118 135 130 120 104 100 87 61 38 32 28 29
145 309 327 394 58 144 -10 132 115 89 110 132 119 126 119 121 89 100 95 80 74 82 78 73 63 57 57 64 68 84 92 105 148 163 170 183 162 113 102 75 46 40 39
99 175 186 192 85 -39 -4 131 149 145 115 107 132 135 177 186 171 167 126 93 101 104 96 101 99 79 77 83 77 81 101 112 127 165 196 224 237 217 150 113 93 78 56
181 158 212 144 -6 45 69 164 161 140 96 104 123 160 185 235 241 212 160 121 108 105 109 121 137 115 97 75 68 74 83 100 109 99 113 161 219 270 262 181 142 122 101
246 287 254 225 243 171 191 194 219 217 217 199 199 178 173 166 182 189 186 157 138 124 114 111 91 76 64 78 96 112 119 111 123 145 146 155 182 229 301 301 261 239 190
265 318 280 302 272 250 237 191 204 238 207 162 127 154 179 223 304 245 243 257 215 137 119 106 92 99 112 109 115 113 127 128 122 102 129 147 157 170 241 336 369 363 306
293 245 218 181 179 234 260 260 251 206 219 260 273 269 273 307 316 314 262 211 190 161 142 119 104 87 98 115 120 125 112 89 82 105 114 117 100 108 112 101 208 349 387
270 195 145 110 119 161 195 168 175 171 164 166 167 154 186 227 255 236 184 167 130 110 112 112 113 136 120 120 161 147 150 163 122 80 112 81 67 74 136 168 148 221 266
178 171 148 81 82 105 118 125 126 113 123 118 151 184 200 208 206 157 120 94 97 101 89 81 104 84 97 104 85 170 121 99 60 49 65 101 116 113 129 99 126 195 260
87 95 79 135 138 113 94 63 62 115 152 187 190 198 178 143 111 115 117 97 80 49 62 94 108 143 151 146 140 99 94 110 141 116 68 38 55 72 53 72 86 123 201
8 -8 56 107 125 148 181 249 279 281 273 259 221 150 77 57 77 52 21 36 38 63 81 92 102 142 155 141 143 145 133 108 86 104 158 148 69 3 70 49 53 94 136

GFSSE_con_3kmhel_024.txt.gz
Helicity
8 19 64 66 71 64 75 73 72 64 55 62 60 55 57 72 83 85 82 75 76 82 85 87 91 95 97 93 85 71 62 60 71 89 94 80 72 78 59 31 37 32 34
48 73 77 76 74 68 66 70 70 65 62 60 53 74 94 93 91 87 79 71 67 66 67 70 70 72 68 68 70 67 71 73 77 89 93 101 68 92 88 66 58 35 24
102 85 80 68 65 68 76 86 93 80 68 70 80 86 81 84 77 70 58 52 49 54 60 62 64 56 57 58 61 58 68 84 101 110 112 127 97 72 70 54 35 47 21
102 70 67 84 81 71 78 72 65 69 72 73 82 96 91 75 56 45 39 39 40 44 42 28 27 28 32 32 37 38 36 51 83 105 108 118 64 53 39 62 71 32 42
90 73 63 68 58 83 73 73 73 65 65 75 78 69 58 51 44 40 44 43 38 36 31 27 18 19 15 12 10 11 14 27 55 77 101 90 50 41 53 50 72 50 26
67 49 54 57 60 59 73 75 67 64 65 59 46 39 37 41 41 43 42 37 30 29 25 23 18 13 7 5 3 5 14 28 40 45 47 53 50 38 55 1 -12 11 24
45 33 22 34 48 61 72 65 53 51 41 29 24 26 35 30 31 27 19 17 17 19 18 14 11 9 9 11 13 18 28 42 56 57 51 41 33 39 45 32 20 9 12
23 3 4 23 30 41 41 37 49 42 27 27 22 16 19 13 12 -0 5 8 11 5 8 6 3 6 16 23 33 39 53 68 86 78 34 49 28 35 50 25 42 36 54
-16 -22 -27 -18 -6 12 25 35 30 16 5 9 -1 6 7 -9 -13 -15 -10 -10 -14 -13 -16 -22 -20 -1 8 16 21 32 47 92 90 76 58 58 49 43 42 48 42 46 60
-52 -29 -37 -38 -25 -7 -3 -0 -4 -11 -5 -1 -4 5 4 -12 -17 -25 -20 -21 -17 -19 -35 -41 -40 -33 -15 -7 -7 3 28 39 58 62 60 58 44 43 30 21 22 31 36
-13 -23 -55 -26 -14 -23 -42 -40 -26 -30 -24 -9 -2 8 6 -20 -10 -6 -10 -34 -22 -20 -39 -40 -39 -32 -13 -12 -11 -11 3 23 15 25 26 14 17 30 30 21 19 33 42
-13 -35 -12 -30 -26 -12 -12 -18 -15 -36 -43 -20 -12 1 3 8 1 2 -10 -25 -28 -21 -38 -43 -39 -25 -0 30 36 21 31 18 27 19 7 -5 4 17 23 21 11 19 40
13 17 -0 -1 -35 22 15 6 -11 -6 -24 -18 -3 1 25 30 28 8 -8 -8 -6 -11 10 4 5 19 17 34 31 44 55 56 60 46 33 6 3 2 6 12 11 15 28
91 74 41 7 9 6 23 49 32 47 32 11 10 38 85 85 71 53 41 31 30 32 25 23 30 31 33 34 38 29 44 68 76 80 64 38 31 7 1 -0 3 6 27
189 157 95 115 99 67 86 71 75 78 71 58 70 77 107 105 92 98 76 67 63 63 61 59 49 36 26 25 26 28 42 65 78 105 101 62 65 59 42 26 20 15 18
232 254 227 170 193 142 74 89 119 147 136 125 99 101 111 114 130 131 128 110 109 97 81 74 68 64 51 41 30 37 38 49 64 87 122 113 85 88 76 58 53 43 33
294 317 260 244 70 113 85 70 99 124 146 125 110 118 128 136 158 147 142 138 120 98 102 104 92 91 80 53 34 42 55 72 73 65 84 127 120 113 112 90 70 53 44
346 301 264 249 89 52 36 88 90 115 115 142 114 148 179 207 191 173 146 142 133 149 128 108 74 58 31 24 19 28 48 55 58 56 63 70 108 159 152 116 110 74 65
237 270 253 144 91 36 87 112 156 165 159 150 173 191 229 250 243 217 211 203 239 193 155 120 105 61 65 70 51 47 48 55 65 74 84 81 90 134 177 171 139 128 96
266 299 269 211 126 149 194 213 221 234 296 332 364 375 392 363 348 298 257 292 238 188 177 137 103 99 88 87 73 77 67 67 72 78 74 82 105 111 140 185 208 192 152
338 343 223 261 217 177 199 251 301 329 315 337 353 354 343 319 263 236 223 202 181 169 148 148 116 111 104 77 76 92 90 98 123 96 100 117 120 130 181 190 154 196 167
209 168 177 170 177 167 152 147 156 151 167 150 180 241 250 236 191 191 151 160 184 156 146 121 107 89 75 99 75 68 59 74 93 140 90 94 57 68 137 181 170 150 129
218 158 94 80 84 106 129 139 161 133 128 154 159 123 105 65 73 101 114 95 83 82 105 125 145 154 115 94 103 98 90 101 37 -8 74 65 16 -5 3 30 109 152 162
145 131 102 72 50 38 84 106 112 120 118 76 70 71 76 54 47 54 65 74 90 78 95 80 96 84 94 109 92 165 136 122 83 49 65 72 75 41 9 26 68 138 172
79 91 76 73 43 68 101 85 87 122 111 138 150 167 145 91 64 64 94 63 34 21 48 72 85 106 84 81 81 77 81 116 103 107 82 32 51 51 41 90 95 97 154
50 69 100 120 101 129 149 135 170 189 198 200 176 144 92 76 80 93 64 34 -1 8 28 41 48 58 78 97 102 111 104 87 72 78 104 88 40 22 115 90 54 88 90

GFSSE_con_3kmhel_027.txt.gz
Helicity
-25 -16 22 44 55 60 55 50 76 91 88 93 92 92 101 105 106 103 107 107 99 95 98 97 102 104 100 96 97 92 97 92 76 63 79 59 47 53 58 52 49 52 49
25 -4 19 55 65 60 68 93 107 95 89 81 74 71 83 83 80 91 86 75 67 62 59 66 71 66 68 71 83 90 100 92 84 96 101 70 45 41 53 49 33 30 27
38 21 46 65 70 71 86 95 100 87 73 69 68 68 79 88 87 69 56 45 41 42 34 36 32 29 26 33 50 75 91 97 96 94 88 58 35 23 51 60 34 29 33
38 42 57 68 80 76 83 97 73 69 64 61 67 78 80 67 50 37 33 34 35 35 33 34 32 31 28 23 30 38 41 51 48 62 63 28 22 16 23 44 52 43 3
23 43 55 73 72 77 75 59 66 71 70 72 68 67 55 38 30 28 30 28 27 28 31 32 33 28 28 29 33 44 48 43 30 21 26 14 4 18 17 9 -7 -13 31
28 56 49 64 61 67 65 64 67 68 57 46 35 24 20 19 19 18 16 15 16 21 24 24 29 31 29 34 46 52 59 57 50 32 12 2 8 -3 5 8 1 1 -3
40 43 32 34 40 40 61 77 56 40 24 10 8 8 10 12 4 -0 -0 -1 2 8 10 9 11 18 23 30 48 53 56 70 65 49 29 14 -2 -2 -18 -15 3 -0 47
43 3 8 19 22 47 55 27 22 15 7 -0 -1 -4 -8 -13 -14 -9 -9 -8 -6 -7 -13 -9 -3 5 14 27 42 49 52 59 66 68 70 52 11 -8 -6 10 18 26 -5
-6 -4 -21 -11 22 31 13 8 6 2 1 -2 -9 -22 -24 -14 -16 -14 -16 -20 -22 -28 -37 -33 -25 -11 -2 -0 9 26 45 39 42 46 59 65 39 34 30 36 21 16 22
-23 -35 -26 -14 -1 -18 -15 -4 -6 -8 -6 -14 -28 -27 -23 -22 -20 -17 -25 -25 -29 -39 -48 -49 -42 -30 -18 -7 3 1 13 29 31 28 33 31 37 46 45 45 44 32 15
-28 -39 -42 -31 -54 -38 -28 -42 -26 -25 -20 -20 -17 -5 -10 -17 -16 -18 -30 -35 -37 -50 -54 -46 -39 -40 -33 -17 -8 -2 13 18 15 18 15 12 8 16 33 38 32 38 30
-41 -75 -89 -75 -44 -19 -29 -52 -46 -30 -29 -16 -9 -2 -5 -9 -8 -7 -14 -27 -25 -30 -30 -26 -19 -15 3 18 24 13 23 29 40 36 30 -4 2 2 10 19 22 14 15
-53 -77 -69 -60 -34 -6 -23 -31 -29 -16 -10 -7 13 21 8 9 -5 16 22 25 35 35 40 33 33 38 32 26 23 27 27 30 45 63 64 37 21 15 3 8 14 23 21
-21 -22 -38 -24 11 -26 -11 -2 11 31 22 13 18 26 50 60 66 86 87 74 74 59 68 60 51 36 27 13 5 13 18 24 41 52 55 48 59 45 34 18 19 18 26
17 3 11 11 1 -20 -3 24 27 51 48 44 51 58 75 97 118 99 113 103 105 88 87 75 64 51 42 37 36 33 25 27 34 49 68 51 45 31 38 49 43 37 33
101 51 69 51 27 50 68 59 25 64 68 65 82 74 89 115 131 137 155 155 152 143 126 106 91 87 54 48 36 53 49 42 52 68 79 77 64 65 49 25 34 51 53
155 145 135 95 75 89 94 81 79 117 100 81 102 114 145 176 204 217 239 229 225 182 155 125 114 91 57 59 49 48 45 66 78 64 57 61 67 70 71 68 59 34 59
217 223 190 154 122 104 146 121 151 161 164 160 174 234 299 327 336 308 271 251 202 159 131 112 64 35 39 20 4 19 35 54 91 116 118 95 96 113 118 117 110 87 56
297 385 341 255 132 71 103 184 260 269 271 294 361 402 407 396 349 287 262 221 173 146 98 71 86 73 81 84 69 84 103 90 79 110 145 169 152 132 127 176 209 186 142
408 463 339 202 194 134 307 311 297 290 314 356 349 353 320 291 273 235 177 151 116 94 107 149 121 101 94 77 87 103 114 120 170 173 161 148 152 147 141 152 152 172 228
337 296 201 209 229 240 230 192 230 215 237 276 267 239 212 177 143 131 111 105 86 94 88 94 69 104 101 126 86 90 66 119 141 151 150 93 95 107 116 130 115 112 146
288 208 228 257 183 115 106 106 141 177 188 147 120 118 104 102 92 58 22 5 34 81 122 118 120 112 113 144 118 94 86 87 92 102 35 110 80 30 62 73 82 113 100
114 104 98 52 46 62 80 92 117 125 94 114 124 82 71 77 62 38 36 23 45 55 75 90 131 152 132 114 138 124 121 131 81 31 72 9 10 26 48 66 101 115 130
9 21 19 12 13 30 43 59 57 60 99 105 48 10 35 65 54 47 37 49 64 35 43 42 76 75 101 102 109 130 110 100 54 6 55 108 86 77 61 103 111 112 123
11 26 26 48 70 62 78 91 96 123 115 98 109 107 96 102 80 59 75 63 37 -4 -35 -21 5 27 21 31 48 63 79 90 110 95 89 33 50 77 51 77 83 83 127
53 91 103 110 93 111 146 160 177 168 150 134 100 119 122 111 106 103 78 46 10 -31 -12 8 27 19 26 35 65 91 109 114 107 110 110 95 82 66 72 81 95 87 90

GFSSE_con_3kmhel_030.txt.gz
Helicity
-38 -42 -14 15 40 50 64 81 97 101 88 87 87 84 102 118 121 120 118 104 93 82 74 69 79 89 91 95 89 81 79 69 67 61 54 44 26 41 52 49 42 41 60
-3 -31 -5 27 52 67 73 80 90 94 85 89 90 101 103 108 103 90 66 57 50 44 48 51 50 58 67 80 86 81 71 65 73 59 46 39 19 35 54 48 43 40 51
9 -16 -5 32 58 65 65 74 95 90 86 85 78 70 72 69 54 38 35 33 36 43 43 42 41 44 50 57 57 58 44 42 42 24 9 -2 -1 7 30 35 36 30 17
22 -2 4 33 58 58 65 94 82 76 69 64 56 58 49 31 24 22 20 25 32 37 40 39 44 48 51 52 49 49 50 41 33 25 5 -4 -18 -13 20 21 18 32 30
20 4 5 42 59 63 80 67 72 72 68 53 42 25 10 9 13 21 22 25 27 31 33 37 41 46 51 56 53 54 51 43 33 20 10 2 -3 -8 5 21 14 2 20
-1 -9 15 38 42 49 60 80 71 56 34 12 -5 -6 -4 3 10 12 11 12 20 21 25 30 32 41 46 44 47 47 53 49 47 27 18 20 5 -4 -1 20 27 38 21
-10 -2 3 16 30 53 60 64 44 28 -2 -12 -15 -13 -11 -11 -5 -3 -3 1 1 -0 10 13 17 23 29 35 41 39 33 41 38 50 51 37 32 32 24 22 36 51 56
5 -13 -15 14 32 42 52 33 13 -2 -14 -15 -21 -26 -23 -17 -18 -15 -5 -4 -4 -7 -2 4 5 5 9 16 19 22 22 31 35 42 53 48 44 52 54 68 70 76 93
-43 -21 -12 1 17 31 18 2 -2 -10 -22 -27 -30 -29 -22 -24 -20 -14 -4 -1 -3 -8 -7 -2 4 8 12 22 21 17 15 12 20 21 32 41 42 41 46 49 52 60 59
-44 -34 -13 -8 -0 -6 -10 -6 -10 -20 -28 -28 -24 -17 -13 -16 -20 -21 -10 -14 -6 -5 -9 -8 -6 -1 -3 3 9 9 12 13 9 9 22 27 27 31 29 36 40 42 48
-48 -43 -43 -11 -18 -20 -23 -39 -25 -27 -26 -21 -11 -6 -9 -14 -15 -15 -14 -15 1 -1 -5 -7 -6 -6 4 6 7 6 7 2 14 22 21 8 18 25 35 38 42 41 38
-64 -76 -42 -41 -46 -51 -54 -52 -39 -37 -29 -19 -11 -5 4 9 13 18 21 16 29 39 34 35 37 41 31 12 6 17 13 12 10 12 26 19 28 30 19 24 37 37 40
-82 -60 -53 -58 -59 -64 -61 -38 -40 -30 -18 -13 -9 8 20 32 30 46 52 49 57 74 66 67 59 48 45 20 10 13 25 32 32 34 25 22 37 42 43 40 35 32 35
-61 -52 -52 -57 -64 -72 -43 -14 -13 -20 -0 14 26 27 42 56 66 75 87 92 119 111 124 115 92 83 76 47 27 17 19 21 36 51 61 77 81 76 58 50 50 54 55
-37 -19 -33 -23 -50 -44 -28 -15 -3 -3 16 39 51 57 74 93 107 136 173 177 175 151 138 127 113 105 83 64 49 26 17 26 38 49 59 83 102 122 120 112 93 66 61
2 4 -7 -11 -27 -25 -21 -6 -6 2 32 62 98 124 128 140 178 230 239 225 216 177 147 126 103 80 60 59 58 48 32 35 39 50 71 87 133 156 166 150 132 127 110
20 65 80 84 57 51 43 57 54 56 94 133 173 190 206 227 265 274 267 243 200 158 145 125 118 111 101 61 47 33 31 42 53 83 86 113 138 194 233 241 227 182 152
116 202 213 212 165 139 82 120 101 241 199 250 269 268 277 276 255 238 198 175 154 143 118 99 102 106 67 43 43 50 62 69 89 108 154 158 161 177 219 294 289 274 246
262 382 435 332 293 180 184 160 203 233 280 264 272 267 242 229 213 187 156 133 104 49 29 58 68 41 52 104 110 117 118 101 101 144 146 123 115 112 118 186 254 273 288
455 555 623 467 308 264 216 188 258 268 219 199 189 156 143 134 107 66 79 90 73 57 49 56 63 80 60 86 84 120 84 98 165 167 148 119 106 85 71 89 86 112 223
361 443 461 313 216 98 75 90 122 96 101 124 123 124 131 108 114 87 64 76 73 85 70 66 48 83 86 107 72 75 55 55 145 180 148 104 99 105 70 65 54 62 67
181 103 69 26 -73 -42 20 22 50 44 94 131 142 168 145 114 84 60 40 39 62 80 93 90 89 69 59 76 56 19 80 69 104 108 87 90 79 36 62 71 103 127 109
-5 -40 -37 -58 -38 20 72 98 109 137 129 122 156 156 111 74 69 51 43 70 74 57 57 44 69 99 126 97 129 102 98 70 74 -13 85 78 70 51 44 68 93 109 137
73 67 90 75 55 32 38 68 85 80 114 148 164 121 111 96 61 49 56 75 93 93 98 60 36 29 36 47 62 43 47 58 46 14 -18 -3 -1 76 89 114 114 127 143
28 14 51 76 77 41 60 84 116 168 180 182 145 139 129 95 73 68 82 94 83 51 8 -16 -5 26 73 93 95 83 62 41 23 33 37 -17 42 24 70 83 130 126 122
34 48 115 53 66 94 110 133 163 171 161 142 117 124 122 106 89 79 86 103 75 56 60 89 69 72 83 88 100 90 66 72 69 89 88 102 61 31 66 58 128 116 116

GFSSE_con_3kmhel_033.txt.gz
Helicity
11 2 -11 9 29 46 55 55 74 88 93 99 85 81 80 86 97 93 68 52 46 49 60 67 67 61 55 52 52 52 51 39 37 35 33 41 47 53 64 59 36 48 55
24 -5 -13 18 43 54 59 64 81 91 95 81 72 66 73 88 73 52 44 39 41 51 59 63 59 59 50 43 36 25 23 18 19 23 32 27 48 63 60 51 43 39 40
52 6 -1 17 42 48 58 87 92 74 68 63 63 64 71 57 39 34 37 36 43 48 50 54 55 50 48 45 36 30 27 24 22 26 24 24 25 47 48 48 40 35 45
56 7 0 8 28 42 61 71 61 67 75 77 70 62 42 24 21 28 36 30 35 44 45 48 50 49 42 40 43 46 40 32 28 33 23 23 29 47 49 65 43 46 67
-2 -4 -1 14 22 39 56 51 62 74 65 40 27 18 9 11 16 20 18 13 21 31 36 45 48 47 44 41 45 45 45 45 35 21 32 34 28 42 60 62 63 44 61
-10 -12 0 17 30 41 44 57 59 41 15 0 2 6 3 2 7 12 9 10 24 33 35 38 39 43 41 39 45 46 44 49 31 46 33 34 37 49 54 66 70 70 74
-24 -22 -4 16 26 34 43 39 26 9 1 -1 -7 -14 -12 -1 5 8 8 7 13 20 28 33 31 29 25 22 25 30 35 39 45 48 47 41 37 46 50 58 66 74 68
-18 -18 -3 7 20 30 29 27 13 3 -8 -14 -24 -21 -13 -4 5 7 1 7 19 23 26 25 23 17 11 6 4 -2 -4 5 15 33 41 35 43 54 48 45 52 54 61
-23 -15 -9 1 18 22 23 5 -4 -12 -20 -25 -24 -18 -7 1 7 10 14 14 10 11 17 20 18 14 10 4 1 -6 -10 -10 -10 -4 7 25 52 43 46 46 42 50 51
-27 -21 -6 9 11 -2 -4 -15 -17 -23 -24 -22 -14 -1 6 14 20 22 23 22 16 11 10 16 20 24 31 26 20 12 3 -9 5 1 -1 8 28 48 59 54 52 44 46
-27 -14 10 -4 -19 -25 -27 -31 -34 -28 -23 -12 0 11 15 15 18 25 27 30 40 46 48 57 67 67 42 41 43 30 4 13 19 17 12 27 28 28 33 48 62 68 58
-21 -10 -12 -28 -35 -40 -47 -47 -46 -31 -29 -16 -4 8 13 20 26 28 43 63 103 121 120 114 106 85 66 48 30 17 6 18 29 29 33 46 55 45 36 31 34 44 60
-5 -21 -40 -47 -50 -56 -53 -49 -31 -27 -18 -8 -5 16 25 36 41 54 80 99 111 134 110 106 102 96 97 65 36 20 22 14 20 31 46 64 69 65 65 56 42 33 35
-37 -31 -49 -67 -47 -46 -37 -28 -16 -12 -6 3 25 44 44 66 100 126 139 145 150 133 137 133 113 109 115 101 72 46 28 13 5 16 38 65 72 81 76 77 80 85 69
-47 -28 -43 -27 -37 -29 -13 -15 -16 -4 13 33 52 77 90 112 140 154 166 166 165 158 149 141 136 133 125 110 91 62 35 26 32 38 43 76 110 128 133 135 127 117 108
-22 -8 -2 7 7 1 -5 3 -4 1 28 92 105 130 143 146 154 161 164 181 177 165 155 144 131 121 110 104 98 83 54 55 58 74 78 91 154 189 201 205 204 194 171
-5 57 98 87 79 69 55 41 54 45 105 158 165 171 180 173 182 176 180 188 177 162 148 142 140 116 103 101 87 74 65 84 99 114 127 123 130 159 192 220 229 229 219
56 134 206 223 194 181 137 24 23 32 148 123 134 143 167 169 164 164 173 176 165 151 150 132 103 103 120 113 102 98 105 117 119 141 166 164 157 146 149 201 216 205 194
111 215 323 338 338 314 174 54 43 38 98 114 113 111 137 153 170 174 167 141 128 106 82 80 100 108 119 129 122 109 119 130 145 176 203 185 167 157 147 169 180 168 199
188 300 418 465 342 223 95 112 101 94 89 87 114 142 164 174 159 140 142 131 85 76 86 100 104 92 70 69 65 84 78 94 157 179 204 189 192 158 130 134 114 119 149
260 264 269 343 232 101 76 37 45 77 101 125 142 172 179 162 147 125 89 75 69 85 74 63 68 100 102 112 52 70 21 9 73 124 181 159 148 142 128 106 105 103 108
124 141 128 84 50 -2 -27 -36 15 59 88 136 147 149 146 126 81 50 40 48 55 65 77 73 68 52 57 85 88 83 137 124 132 156 123 152 137 137 104 91 103 89 102
31 4 -17 -6 -44 -80 -43 27 88 106 111 110 123 155 154 95 86 79 72 69 68 62 73 65 52 69 100 103 139 164 195 215 216 125 142 113 104 85 66 63 57 97 108
32 -21 -46 -37 -37 3 53 57 82 69 88 129 170 182 147 125 107 86 82 90 93 85 72 73 85 107 111 153 147 133 138 125 123 117 85 55 83 60 78 78 53 53 68
14 -29 14 53 96 85 78 77 80 118 145 167 171 156 125 112 92 93 106 102 88 88 96 101 112 90 92 97 134 137 111 103 82 112 96 81 64 67 60 74 80 62 78
31 80 185 133 133 113 113 101 118 142 152 161 153 135 129 121 116 104 103 95 91 110 139 161 158 143 105 94 123 98 96 101 79 73 76 87 60 68 86 59 66 67 44

GFSSE_con_3kmhel_039.txt.gz
Helicity
92 76 49 39 43 45 57 71 78 78 79 77 72 68 67 76 64 47 38 33 36 39 39 40 41 40 37 35 35 31 24 17 16 8 14 34 80 102 117 133 173 97 94
81 49 47 47 48 49 55 67 77 83 78 71 71 68 69 63 48 47 44 45 44 44 44 42 44 46 44 38 29 25 21 14 -6 -26 -17 41 69 79 97 102 111 91 91
67 52 31 47 49 46 52 69 76 69 64 69 78 74 61 44 44 50 52 45 40 40 39 42 43 42 40 35 30 30 15 -7 -36 -48 -22 55 90 64 70 60 71 86 74
65 40 38 49 39 51 54 62 55 57 72 83 72 50 32 36 42 47 44 33 33 33 35 36 34 31 28 26 28 26 15 -2 -17 -10 17 21 56 107 69 66 63 95 80
31 28 67 68 52 48 52 52 58 77 80 62 31 22 28 31 39 41 36 28 26 32 32 30 28 26 26 29 32 32 19 18 16 -30 56 67 126 80 68 68 55 58 74
70 101 61 37 51 45 55 61 69 67 51 24 23 25 25 35 34 28 24 24 33 26 27 29 29 29 25 30 34 34 27 58 50 20 19 80 57 54 64 64 69 65 65
75 66 37 35 54 46 55 56 60 42 29 28 35 33 30 25 20 24 27 27 23 22 19 22 24 24 22 17 12 5 9 12 14 24 15 83 36 60 69 67 64 63 66
76 15 33 58 73 52 56 59 42 34 37 43 37 24 23 21 28 35 42 31 26 19 15 16 23 28 27 20 14 2 -12 -4 4 19 5 65 46 41 40 50 57 61 65
28 37 40 46 43 65 60 37 36 45 42 33 19 17 19 30 38 48 43 39 25 22 22 24 39 44 40 41 31 10 -24 -19 5 18 2 77 39 47 47 43 39 46 52
38 2 20 31 24 28 27 37 50 43 17 18 13 15 20 30 30 33 41 54 42 38 49 53 50 52 55 61 51 22 -16 -16 9 26 45 37 38 41 48 50 48 49 52
-2 -12 11 12 21 27 32 47 45 27 11 16 14 0 0 21 14 37 78 56 56 59 63 61 55 44 37 45 53 21 0 34 -1 38 43 54 52 33 35 42 50 59 68
41 46 75 93 70 59 49 26 15 8 -2 2 12 9 4 34 62 102 65 53 57 55 62 60 47 24 42 63 91 57 68 37 19 39 63 107 84 44 44 50 57 71 84
28 26 38 60 43 23 36 7 -5 -6 10 20 25 12 60 28 36 27 51 41 45 54 55 66 81 102 87 75 82 66 45 30 29 47 83 134 120 59 61 81 90 95 97
23 37 55 66 55 68 27 -7 3 3 19 25 47 42 43 32 39 54 50 65 50 87 97 99 127 95 92 65 63 49 46 33 42 49 73 127 116 78 73 87 99 106 106
48 64 57 45 42 45 48 43 41 46 51 40 52 79 82 64 59 61 80 87 109 122 156 139 150 120 95 77 89 62 60 31 51 56 72 132 117 77 71 93 105 114 120
64 67 53 48 47 46 68 72 69 79 58 52 51 57 90 90 86 104 110 140 174 187 165 145 145 97 99 86 66 83 62 55 71 71 87 89 118 92 72 86 104 123 131
49 76 80 77 99 112 100 129 96 79 33 28 34 42 118 148 152 144 209 195 179 164 133 122 102 105 83 84 87 102 74 82 127 96 96 92 134 104 96 106 104 105 116
83 75 122 148 164 189 192 211 159 180 149 4 59 99 96 97 116 128 156 168 146 120 126 102 79 67 78 89 104 99 79 92 112 81 59 202 172 140 157 163 136 100 97
98 154 127 168 246 282 258 308 309 129 94 -49 51 88 88 100 113 134 162 157 84 89 82 71 90 84 88 80 94 106 68 93 69 70 177 151 121 128 163 100 172 97 115
120 199 112 181 286 284 275 207 282 275 19 3 62 59 71 93 106 95 113 104 71 102 114 130 89 81 70 69 90 88 75 84 84 100 132 168 205 146 121 198 106 69 203
206 187 117 198 202 271 171 101 48 29 30 47 43 60 77 98 111 135 162 126 98 83 62 37 69 65 77 93 119 108 115 51 156 120 190 230 150 191 181 149 154 188 117
209 161 147 143 124 82 38 47 44 46 48 57 84 81 106 141 167 133 116 109 138 83 89 117 120 112 125 142 131 167 169 157 141 248 261 173 121 156 170 167 129 122 146
162 108 103 63 40 19 81 95 100 88 101 104 119 99 158 161 161 141 137 132 113 101 132 163 151 134 156 134 143 149 166 203 233 160 174 165 194 139 103 75 115 115 82
95 72 53 62 50 90 113 121 88 70 95 114 140 164 187 178 185 161 161 147 140 136 127 129 140 164 108 126 129 157 159 230 245 226 158 154 91 48 63 86 62 55 102
101 63 53 68 121 156 125 110 91 91 159 165 172 225 125 140 123 115 113 148 134 112 114 116 119 167 147 172 177 172 142 140 122 122 166 127 93 67 61 64 81 83 45
95 88 110 118 154 133 127 123 100 180 135 134 126 170 141 176 143 152 156 167 173 122 126 147 158 144 112 84 128 79 76 140 100 105 84 78 75 47 44 64 71 75 65